Regional Weather Roundup
Issued by NWS

Home | Current Version | Previous Version | Text Only | Print | Product List | Glossary On
Versions: 1 2 3 4 5 6 7 8 9 10 11 12 13 14 15 16 17 18 19 20 21 22 23 24 25 26 27 28 29 30 31 32 33 34 35 36 37 38 39 40 41 42 43 44 45 46 47 48 49 50
000
ASUS43 KDTX 192201
RWRMI
MICHIGAN HOURLY REGIONAL WEATHER ROUNDUP
NATIONAL WEATHER SERVICE DETROIT/PONTIAC MI
600 PM EDT SUN OCT 19 2014

NOTE: "FAIR" INDICATES FEW OR NO CLOUDS BELOW 12,000 FEET WITH NO
SIGNIFICANT WEATHER AND/OR OBSTRUCTION TO VISIBILITY.

MIZ047>049-052>055-059>063-066>070-074>076-081>083-192300-
SOUTHEAST LOWER MICHIGAN

CITY           SKY/WX    TMP DP  RH WIND       PRES   REMARKS
ADRIAN         CLOUDY    51  34  52 W7        30.07F
ALMA           CLOUDY    50  37  60 SW8       30.02F
ANN ARBOR      MOCLDY    51  33  50 S7        30.05F
CARO           MOCLDY    49  37  64 SW6       30.02F
DETROIT CITY   MOCLDY    52  29  41 SW8       30.07F
DETROIT        CLOUDY    50  30  46 SW8       30.07F
FLINT          CLOUDY    52  36  54 SW6       30.04F
GROSSE ILE     MOCLDY    52  30  43 SW5       30.06F
HILLSDALE      CLOUDY    51  35  53 SW5       30.05F
HOWELL         CLOUDY    50  34  53 SW7       30.03F

CITY           SKY/WX    TMP DP  RH WIND       PRES   REMARKS
JACKSON        CLOUDY    50  34  54 SW8       30.05F
LAMBERTVILLE   CLOUDY    52  28  40 SW6       30.08F
LANSING        CLOUDY    50  36  58 SW10      30.04F
LAPEER         FAIR      48  34  57 S3        30.04F
MASON          CLOUDY    50  34  54 SW6       30.04F
MONROE         MOCLDY    52  30  43 SW8       30.07S
MT. CLEMENS    CLOUDY    49  28  43 SW8       30.04F
PONTIAC        CLOUDY    50  31  48 S8        30.04F
PORT HOPE        N/A     47  33  58 S3        30.01F
PORT HURON     MOCLDY    48  32  53 S6        30.05F
TRI CITIES     CLOUDY    52  37  56 SW13      30.02F
TROY           MOCLDY    52  27  37 SW7       30.07F
SAGINAW HB     CLOUDY    52  36  54 SW7       30.01F
$$
MIZ043>046-050>051-056>058-064>065-071>073-077>080-192300-
SOUTHWEST LOWER MICHIGAN

CITY           SKY/WX    TMP DP  RH WIND       PRES   REMARKS
BATTLE CREEK   CLOUDY    51  37  58 SW12      30.05F
BENTON HARBOR  CLOUDY    51  39  63 SW7       30.04F
BIG RAPIDS     CLOUDY    49  42  76 SW13G20   29.97F
COLDWATER      CLOUDY    52  38  58 SW9       30.05F
FREMONT        MOCLDY    49  38  68 S15G22    29.99F
HOLLAND        CLOUDY    52  39  61 SW13      30.03F
GRAND RAPIDS   CLOUDY    52  39  61 SW9       30.02F
IONIA          FAIR      52  38  60 SW9       30.02F
KALAMAZOO      CLOUDY    52  37  56 SW9       30.05F
LUDINGTON      CLOUDY    49  43  79 S13G23    29.95F
MARSHALL       CLOUDY    49  36  60 SW7       30.04F
MOUNT PLEASANT CLOUDY    50  38  62 S8        29.99F
MUSKEGON       MOCLDY    51  40  65 S17G25    30.01F
SOUTH HAVEN    CLOUDY    53  40  61 SW5       30.03F
$$
MIZ016>042-192300-
NORTHERN LOWER MICHIGAN

CITY           SKY/WX    TMP DP  RH WIND       PRES   REMARKS
ALPENA         CLOUDY    48  34  58 S6        29.96F
BEAVER ISLAND  CLOUDY    50  41  71 S13G20    29.89F
BELLAIRE       CLOUDY    51  37  60 S8        29.93F
CADILLAC       CLOUDY    46  38  72 SW13      29.95F
CHARLEVOIX     CLOUDY    51  39  65 S9        29.94F
FRANKFORT      CLOUDY    51  40  67 SW9G18    29.91F
GAYLORD        CLOUDY    47  35  63 S10       29.92F
GRAYLING       CLOUDY    49  37  61 S5        29.96F
HARBOR SPRINGS CLOUDY    50  37  60 SW6       29.92F
HOUGHTON LAKE  CLOUDY    48  36  63 S9        29.96F
MANISTEE       CLOUDY    50  37  62 S10G23    29.94F
OSCODA         CLOUDY    50  35  57 S9        29.97F
PELLSTON       CLOUDY    49  37  63 SW5       29.93F
TRAVERSE CITY  CLOUDY    51  37  58 VRB6      29.91F
$$
MIZ007>008-015-192300-
EASTERN UPPER MICHIGAN

CITY           SKY/WX    TMP DP  RH WIND       PRES   REMARKS
KINROSS        CLOUDY    46  41  81 S6        29.91F
MACKINAC ISLAN CLOUDY    49  37  64 S5        29.91F
NEWBERRY       CLOUDY    46  40  77 S14G23    29.84F
S. S. MARIE    LGT RAIN  45  39  79 SE6       29.90F
MUNISING         N/A     49  43  80 S15       29.77F
$$
MIZ004>006-011>014-085-192300-
CENTRAL UPPER MICHIGAN

CITY           SKY/WX    TMP DP  RH WIND       PRES   REMARKS
MANISTIQUE     CLOUDY    49  44  83 S17G24    29.84F
ESCANABA       CLOUDY    50  43  76 S13       29.81F
MENOMINEE      CLOUDY    52  43  71 SW17      29.81F
SAWYER-GWINN   DRIZZLE   45  41  87 S6        29.77F
$$
MIZ001>003-009>011-084-192300-
WESTERN UPPER MICHIGAN

CITY           SKY/WX    TMP DP  RH WIND       PRES   REMARKS
IRON MOUNTAIN  LGT RAIN  47  42  83 SE7       29.78F
HOUGHTON       CLOUDY    48  42  80 S7        29.72F
COPPER HARBOR    N/A     47  42  83 SW6       29.73F
IRONWOOD       MOCLDY    55  43  62 SW13G18   29.70S
$$

ABBREVIATIONS USED IN REMARKS
   TC - TEMPERATURE IN CELSIUS
  WCI - WIND CHILL INDEX
   HX - HEAT INDEX
  VSB - VISIBILITY




USA.gov is the U.S. government's official web portal to all federal, state and local government web resources and services.